Location: Dugenta
(41.1333°N, 14.4500°E)
Time: 13:52:15
(UTC+00:00)

SL-4 R/B - Pass Details

Date: 03 March 2021
Orbit: 428 x 663 km, 51.6° (Epoch: 13 April)

Event Time Altitude Azimuth Distance (km) Brightness Sun altitude
Rises 18:13:18 0° 307° (NW) 2,476 6.4 -15.4°
Reaches altitude 10° 18:15:58 10° 327° (NNW) 1,569 4.9 -15.9°
Maximum altitude 18:18:28 18° 13° (NNE) 1,138 3.5 -16.4°
Enters shadow 18:19:15 17° 31° (NNE) 1,179 3.5 -16.5°
